Location: Newark
(34.9500°N, 139.9667°E)
Time: 01:38:27
(UTC+00:00)

deb Explorer IX - Pass Details

Date: 11 December 2019
Orbit: 548 x 1101 km, 38.8° (Epoch: 23 January)

Event Time Altitude Azimuth Distance (km) Brightness Sun altitude
Rises 11:03:24 0° 288° (WNW) 3,666 ? -43.1°
Reaches altitude 10° 11:05:57 10° 288° (WNW) 2,782 ? -43.6°
Enters shadow 11:08:24 25° 287° (WNW) 1,973 ? -44.1°
